Location: Moscow
(30.9132°N, 94.8252°W)
Time: 12:16:38
(UTC+00:00)

Meteor 2-1 Rocket - Pass Details

Date: 15 November 2025
Orbit: 822 x 912 km, 81.3° (Epoch: 11 December)

Event Time Altitude Azimuth Distance (km) Brightness Sun altitude
Rises 00:56:06 0° 176° (S) 3,461 7.5 -20.3°
Reaches altitude 10° 00:58:33 10° 172° (S) 2,538 6.7 -20.8°
Maximum altitude 01:04:14 59° 94° (E) 1,030 4.3 -22.0°
Enters shadow 01:07:23 27° 25° (NNE) 1,662 5.4 -22.7°
